This is the latest recevied weather packets stored in our database for station/object I1SXT-13. If no packets are shown the sender has not sent any weather packets the latest 10 day(s).
| Time | Temp. | Humidity | Pressure | Rain* | Wind** | Luminosity | Snow |
|---|---|---|---|---|---|---|---|
| 1777532065 | 17.22° C | 60% | 1020.5 hPa | 0 mm | - | - | - |
| 1777531768 | 17.22° C | 59% | 1020.8 hPa | 0 mm | - | - | - |
| 1777531464 | 17.22° C | 62% | 1020.3 hPa | 0 mm | - | - | - |
| 1777530870 | 17.22° C | 61% | 1020.2 hPa | 0 mm | - | - | - |
| 1777530565 | 17.22° C | 58% | 1020.8 hPa | 0 mm | - | - | - |
| 1777530269 | 17.22° C | 62% | 1020.2 hPa | 0 mm | - | - | - |
| 1777529965 | 17.22° C | 60% | 1019.8 hPa | 0 mm | - | - | - |
| 1777529667 | 16.67° C | 63% | 1020.8 hPa | 0 mm | - | - | - |
| 1777529370 | 16.67° C | 61% | 1019.7 hPa | 0 mm | - | - | - |
| 1777529066 | 16.67° C | 63% | 1020.4 hPa | 0 mm | - | - | - |
| 1777528465 | 16.67° C | 63% | 1020.3 hPa | 0 mm | - | - | - |
| 1777528168 | 16.67° C | 63% | 1019.4 hPa | 0 mm | - | - | - |
| 1777527864 | 16.67° C | 62% | 1019.7 hPa | 0 mm | - | - | - |
| 1777527567 | 16.67° C | 62% | 1019.1 hPa | 0 mm | - | - | - |
| 1777527269 | 16.67° C | 63% | 1019.8 hPa | 0 mm | - | - | - |
| 1777526966 | 16.67° C | 62% | 1019.1 hPa | 0 mm | - | - | - |
| 1777526668 | 16.67° C | 63% | 1019.9 hPa | 0 mm | - | - | - |
| 1777525770 | 16.67° C | 61% | 1019.3 hPa | 0 mm | - | - | - |
| 1777525466 | 16.67° C | 62% | 1019.7 hPa | 0 mm | - | - | - |
| 1777525169 | 16.11° C | 62% | 1018.5 hPa | 0 mm | - | - | - |
| 1777524865 | 16.67° C | 63% | 1018.8 hPa | 0 mm | - | - | - |
| 1777524568 | 16.67° C | 62% | 1019.3 hPa | 0 mm | - | - | - |
| 1777524264 | 16.67° C | 61% | 1018.7 hPa | 0 mm | - | - | - |
| 1777523966 | 16.67° C | 61% | 1018.6 hPa | 0 mm | - | - | - |
| 1777523669 | 16.67° C | 61% | 1018.9 hPa | 0 mm | - | - | - |
* Rain since midnight (hover to see other rain measurements)
** Current wind speed in m/s (hover to see current wind gust speed)